Hourly Data Report for September 11, 2017

All times are specified in Local Standard Time (LST). Add 1 hour to adjust for Daylight Saving Time where and when it is observed.

NORTH CAPE
PRINCE EDWARD ISLAND

47°03'29.000" N
63°59'55.000" W
7.60 m
8300516
71987
WNE

Download Data

Hourly Data (September 2017)
Hourly Data Report for September 11, 2017
Temp Definition
°C
Dew Point Temp Definition
°C
Rel Hum Definition
%
Wind Dir Definition
10's deg

Wind Spd Definition
km/h
Visibility Definition
km
Stn Press Definition
kPa
Hmdx Definition


Wind Chill Definition


Weather Definition


TIME
00:00 14.7 10.7 77 32 25   101.71     LegendNANA
01:00 14.6 11.4 81 33 30   101.65     LegendNANA
02:00 13.7 11.2 85 31 40   101.58     LegendNANA
03:00 13.6 11.9 89 31 34   101.53     LegendNANA
04:00 13.5 12.2 91 31 33   101.54     LegendNANA
05:00 13.2 11.5 90 30 29   101.53     LegendNANA
06:00 14.5 11.8 84 29 36   101.52     LegendNANA
07:00 14.3 11.4 83 36 36   101.54     LegendNANA
08:00 14.3 11.5 83 1 37   101.56     LegendNANA
09:00 14.7 12.3 85 2 38   101.58     LegendNANA
10:00 14.5 11.9 84 2 38   101.65     LegendNANA
11:00 14.7 11.8 83 36 41   101.62     LegendNANA
12:00 14.5 11.7 83 35 39   101.60     LegendNANA
13:00 14.6 11.8 83 36 42   101.55     LegendNANA
14:00 14.8 11.7 82 36 39   101.50     LegendNANA
15:00 15.0 11.7 81 1 37   101.46     LegendNANA
16:00 15.1 11.7 80 1 38   101.41     LegendNANA
17:00 15.2 11.8 80 1 37   101.41     LegendNANA
18:00 15.0 11.7 80 2 39   101.38     LegendNANA
19:00 15.0 11.8 81 1 33   101.40     LegendNANA
20:00 15.1 11.5 79 36 32   101.39     LegendNANA
21:00 15.2 11.7 80 2 25   101.38     LegendNANA
22:00 15.2 11.4 78 3 27   101.37     LegendNANA
23:00 14.9 11.7 81 4 27   101.34     LegendNANA

Notes on Data Quality.

Legend

  • E = Estimated
  • M = Missing
  • NA = Not Available
  • ‡ = Partner data that is not subject to review by the National Climate Archives
Date modified: